Date String (YYYY-MM-DD hh:mm:ss) UTC,Instrument flags,Ambient pressure (hPa),Sample flow (lpm),Bypass flow (lpm),Sample temperature (°C),Ambient temperature (°C),ASC tube jacket temperature (°C),LED temperature (°C),Box temperature (°C),Sample RH (%),Span deviation,Mass concentration (μg/m³),Mass concentration (μg/m³),Mass concentration (μg/m³)
DateTimeUTC,F1_M11,P_M11,Q1_M11,Q2_M11,T1_M11,T2_M11,T3_M11,T4_M11,T5_M11,U1_M11,ZSPAN_M11,X0_M11,X2_M11,X1_M11
2022-05-08 18:00:00,,0813.7,5.01,0.00,26.5,25.9,00.0,35.2,28.4,18.1,0000.0,0027.31,0009.75,0004.11
2022-05-08 18:01:00,,0813.7,4.99,0.00,26.5,26.0,00.0,35.2,28.5,18.2,0000.0,0026.84,0009.67,0004.08
2022-05-08 18:02:00,,0813.9,5.01,0.00,26.5,26.0,00.0,35.3,28.5,18.4,0000.0,0026.68,0009.57,0004.08
2022-05-08 18:03:00,,0814.0,4.99,0.00,26.6,26.0,00.0,35.3,28.5,17.9,0000.0,0026.53,0009.57,0004.07
2022-05-08 18:04:00,,0814.1,5.01,0.00,26.6,26.1,00.0,35.3,28.6,18.3,0000.0,0026.35,0009.55,0004.06
2022-05-08 18:05:00,,0814.1,5.00,0.00,26.6,26.1,00.0,35.3,28.6,18.2,0000.0,0026.22,0009.56,0004.06
2022-05-08 18:06:00,,0814.2,5.01,0.00,26.7,26.1,00.0,35.4,28.6,17.8,0000.0,0025.80,0009.50,0004.07
2022-05-08 18:07:00,,0814.1,5.00,0.00,26.7,26.1,00.0,35.4,28.6,17.8,0000.0,0025.42,0009.45,0004.07
2022-05-08 18:08:00,,0814.1,5.00,0.00,26.7,26.1,00.0,35.4,28.6,17.8,-000.5,0025.89,0009.52,0004.10
2022-05-08 18:09:00,,0813.9,4.99,0.00,26.7,26.2,00.0,35.4,28.7,17.8,-000.8,0025.78,0009.56,0004.11
2022-05-08 18:10:00,,0813.6,5.00,0.00,26.8,26.2,00.0,35.5,28.7,17.8,0000.1,0026.63,0009.68,0004.14
2022-05-08 18:11:00,,0813.6,5.01,0.00,26.8,26.2,00.0,35.5,28.7,17.8,0000.2,0026.70,0009.67,0004.14
2022-05-08 18:12:00,,0814.0,5.00,0.00,26.8,26.3,00.0,35.5,28.8,17.7,0000.0,0027.38,0009.66,0004.14
2022-05-08 18:13:00,,0813.5,5.00,0.00,26.8,26.3,00.0,35.5,28.8,17.8,0000.0,0027.00,0009.69,0004.14
2022-05-08 18:14:00,,0813.5,5.00,0.00,26.9,26.3,00.0,35.6,28.8,17.7,0000.0,0028.22,0009.76,0004.16
2022-05-08 18:15:00,,0813.5,4.99,0.00,26.9,26.4,00.0,35.6,28.8,17.9,0000.0,0028.73,0009.76,0004.17
2022-05-08 18:16:00,,0813.4,5.00,0.00,26.9,26.4,00.0,35.6,28.9,18.0,0000.0,0029.57,0009.87,0004.20
2022-05-08 18:17:00,,0813.5,4.99,0.00,26.9,26.4,00.0,35.7,28.9,18.1,0000.0,0029.76,0009.98,0004.21
2022-05-08 18:18:00,,0813.5,5.00,0.00,27.0,26.4,00.0,35.7,28.9,18.0,0000.0,0029.92,0010.07,0004.20
2022-05-08 18:19:00,,0813.5,4.98,0.00,27.0,26.4,00.0,35.7,28.9,17.7,0000.0,0029.08,0009.95,0004.20
2022-05-08 18:20:00,,0813.5,5.02,0.00,27.0,26.4,00.0,35.7,28.9,17.8,0000.0,0028.84,0009.79,0004.21
2022-05-08 18:21:00,,0813.5,5.01,0.00,27.0,26.4,00.0,35.7,29.0,18.3,0000.0,0028.23,0009.61,0004.21
2022-05-08 18:22:00,,0813.4,5.00,0.00,27.0,26.5,00.0,35.8,29.0,18.2,0000.0,0027.84,0009.64,0004.21
2022-05-08 18:23:00,,0813.3,5.00,0.00,27.1,26.5,00.0,35.8,29.0,18.4,0000.0,0028.40,0009.77,0004.22
2022-05-08 18:24:00,,0813.3,4.99,0.00,27.1,26.5,00.0,35.8,29.0,17.9,0000.0,0029.28,0009.80,0004.24
2022-05-08 18:25:00,,0813.3,5.00,0.00,27.1,26.5,00.0,35.8,29.1,17.9,0000.0,0028.52,0009.79,0004.24
2022-05-08 18:26:00,,0813.3,5.00,0.00,27.1,26.6,00.0,35.9,29.1,18.0,0000.0,0028.52,0009.86,0004.24
2022-05-08 18:27:00,,0813.2,5.00,0.00,27.2,26.6,00.0,35.9,29.1,17.8,0000.0,0027.93,0009.83,0004.21
2022-05-08 18:28:00,,0813.2,5.00,0.00,27.2,26.6,00.0,35.9,29.1,18.1,0000.0,0029.07,0009.83,0004.22
2022-05-08 18:29:00,,0813.2,5.01,0.00,27.2,26.7,00.0,35.9,29.2,17.9,0000.0,0029.70,0009.86,0004.25
2022-05-08 18:30:00,,0813.2,4.99,0.00,27.3,26.7,00.0,36.0,29.2,18.0,0000.0,0030.23,0009.92,0004.24
2022-05-08 18:31:00,,0813.2,5.00,0.00,27.3,26.7,00.0,36.0,29.2,18.5,0000.0,0029.76,0009.94,0004.23
2022-05-08 18:32:00,,0813.1,5.00,0.00,27.3,26.7,00.0,36.0,29.2,18.4,0000.9,0029.36,0009.98,0004.23
2022-05-08 18:33:00,,0813.1,5.01,0.00,27.3,26.7,00.0,36.0,29.3,17.6,0000.4,0029.52,0010.01,0004.25
2022-05-08 18:34:00,,0813.0,5.00,0.00,27.4,26.8,00.0,36.1,29.3,17.3,-000.6,0029.24,0010.06,0004.28
2022-05-08 18:35:00,,0813.1,5.00,0.00,27.4,26.8,00.0,36.1,29.3,17.9,0000.4,0028.68,0010.09,0004.29
2022-05-08 18:36:00,,0813.0,4.99,0.00,27.4,26.8,00.0,36.1,29.3,17.4,0001.7,0028.38,0010.18,0004.31
2022-05-08 18:37:00,,0813.0,5.01,0.00,27.4,26.8,00.0,36.2,29.4,17.3,0001.4,0028.17,0010.22,0004.33
2022-05-08 18:38:00,,0812.9,5.00,0.00,27.5,26.9,00.0,36.2,29.4,17.5,0001.5,0028.95,0010.23,0004.35
2022-05-08 18:39:00,,0812.9,5.01,0.00,27.5,26.9,00.0,36.2,29.4,17.1,0001.3,0029.68,0010.21,0004.35
2022-05-08 18:40:00,,0813.0,5.00,0.00,27.5,26.9,00.0,36.2,29.5,17.1,0001.2,0028.81,0010.06,0004.35
2022-05-08 18:41:00,,0813.0,5.00,0.00,27.5,26.9,00.0,36.2,29.4,17.5,0000.2,0028.44,0010.04,0004.36
2022-05-08 18:42:00,,0812.9,5.00,0.00,27.5,26.9,00.0,36.3,29.4,17.1,0001.1,0029.23,0010.06,0004.36
2022-05-08 18:43:00,,0812.8,4.99,0.00,27.6,26.9,00.0,36.3,29.5,17.0,0002.5,0029.97,0010.06,0004.34
2022-05-08 18:44:00,,0812.8,5.00,0.00,27.6,27.0,00.0,36.3,29.5,17.0,0000.7,0030.14,0010.06,0004.32
2022-05-08 18:45:00,,0812.7,4.99,0.00,27.6,27.0,00.0,36.3,29.5,17.4,0000.0,0030.06,0010.00,0004.30
2022-05-08 18:46:00,,0812.6,5.00,0.00,27.6,27.0,00.0,36.3,29.5,17.8,0000.0,0030.25,0009.98,0004.29
2022-05-08 18:47:00,,0812.7,5.00,0.00,27.6,27.0,00.0,36.4,29.5,17.3,0000.0,0030.54,0009.92,0004.28
2022-05-08 18:48:00,,0812.7,5.00,0.00,27.7,27.0,00.0,36.4,29.6,16.9,0000.0,0030.61,0009.88,0004.25
2022-05-08 18:49:00,,0812.6,5.00,0.00,27.7,27.1,00.0,36.4,29.6,17.8,0000.1,0030.80,0009.89,0004.24
2022-05-08 18:50:00,,0812.6,5.00,0.00,27.7,27.1,00.0,36.4,29.6,17.5,-000.0,0030.24,0009.86,0004.24
2022-05-08 18:51:00,,0812.6,5.00,0.00,27.7,27.1,00.0,36.5,29.6,17.2,0000.3,0030.41,0009.87,0004.23
2022-05-08 18:52:00,,0812.6,5.00,0.00,27.8,27.1,00.0,36.5,29.7,17.5,0000.4,0031.13,0009.93,0004.23
2022-05-08 18:53:00,,0812.6,4.99,0.00,27.8,27.2,00.0,36.5,29.7,17.1,0002.5,0031.48,0009.98,0004.24
2022-05-08 18:54:00,,0812.7,5.00,0.00,27.8,27.2,00.0,36.5,29.7,16.9,0001.8,0031.02,0010.03,0004.24
2022-05-08 18:55:00,,0812.6,5.01,0.00,27.8,27.2,00.0,36.6,29.7,16.9,0002.6,0030.77,0010.11,0004.25
2022-05-08 18:56:00,,0812.6,5.00,0.00,27.9,27.2,00.0,36.6,29.8,17.0,0002.9,0030.35,0010.05,0004.26
2022-05-08 18:57:00,,0812.5,5.01,0.00,27.9,27.2,00.0,36.6,29.8,16.9,0002.1,0030.09,0010.19,0004.24
2022-05-08 18:58:00,,0812.4,4.99,0.00,27.9,27.3,00.0,36.6,29.8,17.7,0000.3,0029.79,0010.18,0004.22
2022-05-08 18:59:00,,0812.4,4.99,0.00,27.9,27.3,00.0,36.7,29.8,17.9,0000.8,0030.28,0010.16,0004.23
